timestamp,wind_dir_avg,wind_spd_avg,wind_spd_max_dir,wind_spd_gust,battery_voltage,lat,long
2023-01-25 00:04:00+00:00,257.0,9.02,260.0,10.7,12.17,47.59359,-54.27349
2023-01-25 00:14:01+00:00,258.0,10.04,259.0,12.32,12.17,47.59359,-54.27349
2023-01-25 00:24:01+00:00,250.0,9.58,250.0,11.57,12.17,47.59359,-54.27349
2023-01-25 00:34:01+00:00,261.0,9.95,255.0,11.92,12.17,47.59359,-54.27349
2023-01-25 00:44:01+00:00,263.0,13.72,272.0,17.57,12.17,47.59359,-54.27349
2023-01-25 00:54:01+00:00,264.0,14.06,269.0,17.86,12.17,47.59359,-54.27349
2023-01-25 01:04:01+00:00,258.0,11.26,257.0,14.9,12.17,47.59359,-54.27349
2023-01-25 01:14:01+00:00,266.0,10.98,266.0,16.1,12.17,47.59359,-54.27349
2023-01-25 01:24:01+00:00,267.0,9.21,266.0,11.15,12.17,47.59359,-54.27349
2023-01-25 01:34:01+00:00,262.0,10.78,267.0,16.03,12.17,47.59359,-54.27349
2023-01-25 01:44:01+00:00,262.0,9.73,264.0,11.32,12.17,47.59359,-54.27349
2023-01-25 01:54:01+00:00,260.0,10.85,263.0,13.13,12.17,47.59359,-54.27349
2023-01-25 02:04:01+00:00,261.0,10.66,258.0,16.32,12.17,47.59359,-54.27349
2023-01-25 02:14:00+00:00,262.0,12.73,266.0,17.41,12.09,47.59359,-54.27349
2023-01-25 02:24:00+00:00,259.0,9.51,266.0,17.86,12.09,47.59359,-54.27349
2023-01-25 02:34:00+00:00,255.0,12.99,256.0,18.69,12.09,47.59359,-54.27349
2023-01-25 02:44:00+00:00,260.0,11.49,268.0,12.86,12.09,47.59359,-54.27349
2023-01-25 02:54:00+00:00,274.0,10.81,278.0,11.84,12.09,47.59359,-54.27349
2023-01-25 03:04:00+00:00,257.0,10.6,256.0,11.86,12.09,47.59359,-54.27349
2023-01-25 03:14:01+00:00,264.0,10.26,259.0,11.87,12.09,47.59359,-54.27349
2023-01-25 03:24:01+00:00,266.0,8.24,264.0,10.53,12.09,47.59359,-54.27349
2023-01-25 03:34:01+00:00,263.0,10.47,256.0,12.0,12.09,47.59359,-54.27349
2023-01-25 03:44:01+00:00,261.0,9.03,260.0,9.71,12.09,47.59359,-54.27349
2023-01-25 03:54:01+00:00,272.0,9.79,270.0,12.06,12.09,47.59359,-54.27349
2023-01-25 04:04:01+00:00,268.0,8.62,258.0,10.47,12.09,47.59359,-54.27349
2023-01-25 04:14:01+00:00,259.0,12.94,258.0,18.44,12.09,47.59359,-54.27349
2023-01-25 04:24:01+00:00,254.0,11.33,245.0,12.6,12.09,47.59359,-54.27349
2023-01-25 04:34:01+00:00,259.0,11.15,257.0,15.38,12.09,47.59359,-54.27349
2023-01-25 04:44:01+00:00,255.0,10.2,250.0,11.72,12.09,47.59359,-54.27349
2023-01-25 04:54:01+00:00,253.0,11.28,253.0,13.11,12.09,47.59359,-54.27349
2023-01-25 05:04:01+00:00,275.0,10.75,280.0,12.14,12.09,47.59359,-54.27349
2023-01-25 05:14:01+00:00,257.0,9.22,246.0,11.96,12.09,47.59359,-54.27349
2023-01-25 05:24:01+00:00,245.0,10.98,242.0,12.18,12.09,47.59359,-54.27349
2023-01-25 05:34:01+00:00,258.0,10.19,255.0,12.92,12.09,47.59359,-54.27349
2023-01-25 05:44:01+00:00,250.0,11.29,247.0,13.13,12.09,47.59359,-54.27349
2023-01-25 05:54:01+00:00,255.0,11.31,253.0,12.29,12.09,47.59359,-54.27349
2023-01-25 06:04:01+00:00,254.0,9.34,256.0,11.32,12.09,47.59359,-54.27349
2023-01-25 06:14:00+00:00,256.0,9.18,256.0,11.5,12.09,47.59359,-54.27349
2023-01-25 06:24:00+00:00,255.0,9.87,255.0,11.08,12.09,47.59359,-54.27349
2023-01-25 06:34:00+00:00,252.0,9.64,254.0,11.21,12.09,47.59359,-54.27349
2023-01-25 06:44:00+00:00,250.0,9.11,251.0,11.62,12.09,47.59359,-54.27349
2023-01-25 06:54:00+00:00,253.0,8.4,259.0,10.65,12.09,47.59359,-54.27349
2023-01-25 07:04:00+00:00,254.0,9.01,251.0,10.84,12.09,47.59359,-54.27349
2023-01-25 07:14:00+00:00,265.0,8.86,270.0,10.38,12.01,47.59359,-54.27349
2023-01-25 07:24:00+00:00,266.0,8.27,269.0,10.41,12.01,47.59359,-54.27349
2023-01-25 07:34:00+00:00,263.0,9.33,255.0,10.97,12.01,47.59359,-54.27349
2023-01-25 07:44:00+00:00,272.0,9.07,270.0,10.67,12.01,47.59359,-54.27349
2023-01-25 07:54:00+00:00,267.0,9.91,268.0,10.56,12.01,47.59359,-54.27349
2023-01-25 08:04:00+00:00,271.0,9.57,265.0,10.69,12.01,47.59359,-54.27349
2023-01-25 08:14:00+00:00,269.0,9.66,269.0,10.51,12.09,47.59359,-54.27349
2023-01-25 08:24:00+00:00,274.0,8.64,280.0,10.54,12.09,47.59359,-54.27349
2023-01-25 08:34:00+00:00,278.0,8.36,279.0,10.44,12.09,47.59359,-54.27349
2023-01-25 08:44:00+00:00,274.0,8.24,278.0,9.54,12.09,47.59359,-54.27349
2023-01-25 08:54:00+00:00,284.0,7.69,275.0,10.41,12.09,47.59359,-54.27349
2023-01-25 09:04:00+00:00,285.0,7.5,286.0,9.97,12.09,47.59359,-54.27349
2023-01-25 09:14:00+00:00,282.0,5.55,275.0,9.43,12.09,47.59359,-54.27349
2023-01-25 09:24:00+00:00,278.0,7.21,281.0,9.95,12.09,47.59359,-54.27349
2023-01-25 09:34:00+00:00,275.0,9.35,278.0,10.68,12.09,47.59359,-54.27349
2023-01-25 09:44:00+00:00,254.0,9.98,254.0,11.06,12.09,47.59359,-54.27349
2023-01-25 09:54:00+00:00,240.0,8.11,242.0,10.31,12.09,47.59359,-54.27349
2023-01-25 10:04:00+00:00,235.0,4.72,244.0,7.09,12.09,47.59359,-54.27349
2023-01-25 10:14:00+00:00,245.0,9.45,248.0,10.4,12.01,47.59359,-54.27349
2023-01-25 10:24:00+00:00,252.0,8.85,256.0,10.63,12.01,47.59359,-54.27349
2023-01-25 10:34:00+00:00,254.0,8.27,258.0,10.48,12.01,47.59359,-54.27349
2023-01-25 10:44:00+00:00,257.0,9.06,252.0,10.85,12.01,47.59359,-54.27349
2023-01-25 10:54:00+00:00,254.0,9.95,253.0,11.07,12.01,47.59359,-54.27349
2023-01-25 11:04:00+00:00,255.0,10.08,257.0,10.93,12.01,47.59359,-54.27349
2023-01-25 11:14:00+00:00,252.0,10.44,250.0,11.06,12.01,47.59359,-54.27349
2023-01-25 11:24:00+00:00,254.0,10.03,254.0,11.02,12.01,47.59359,-54.27349
2023-01-25 11:34:00+00:00,251.0,9.22,254.0,10.98,12.01,47.59359,-54.27349
2023-01-25 11:44:00+00:00,252.0,8.46,256.0,10.83,12.01,47.59359,-54.27349
2023-01-25 11:54:00+00:00,259.0,9.24,255.0,10.96,12.01,47.59359,-54.27349
2023-01-25 12:04:00+00:00,247.0,9.27,251.0,10.95,12.01,47.59359,-54.27349
2023-01-25 12:14:01+00:00,249.0,8.56,253.0,10.83,13.84,47.59359,-54.27349
2023-01-25 12:24:01+00:00,253.0,8.25,255.0,10.65,13.84,47.59359,-54.27349
2023-01-25 12:34:01+00:00,259.0,9.63,252.0,10.57,13.84,47.59359,-54.27349
2023-01-25 12:44:01+00:00,260.0,9.82,262.0,10.52,13.84,47.59359,-54.27349
2023-01-25 12:54:01+00:00,261.0,9.45,262.0,10.35,13.84,47.59359,-54.27349
2023-01-25 13:04:01+00:00,267.0,9.23,265.0,10.28,13.84,47.59359,-54.27349
2023-01-25 13:14:00+00:00,279.0,5.58,276.0,8.48,14.4,47.59359,-54.27349
2023-01-25 13:24:00+00:00,279.0,8.98,283.0,10.41,14.4,47.59359,-54.27349
2023-01-25 13:34:00+00:00,283.0,8.1,276.0,10.17,14.4,47.59359,-54.27349
2023-01-25 13:44:00+00:00,280.0,8.63,280.0,10.27,14.4,47.59359,-54.27349
2023-01-25 13:54:00+00:00,280.0,9.08,276.0,10.81,14.4,47.59359,-54.27349
2023-01-25 14:04:00+00:00,279.0,9.39,281.0,11.37,14.4,47.59359,-54.27349
2023-01-25 14:14:00+00:00,279.0,7.56,276.0,9.15,13.84,47.59359,-54.27349
2023-01-25 14:24:00+00:00,300.0,11.69,302.0,12.87,13.84,47.59359,-54.27349
2023-01-25 14:34:00+00:00,273.0,10.2,283.0,12.21,13.84,47.59359,-54.27349
2023-01-25 14:44:00+00:00,279.0,10.89,279.0,11.81,13.84,47.59359,-54.27349
2023-01-25 14:54:00+00:00,287.0,11.19,288.0,12.29,13.84,47.59359,-54.27349
2023-01-25 15:04:00+00:00,272.0,10.7,274.0,12.17,13.84,47.59359,-54.27349
2023-01-25 15:14:01+00:00,269.0,11.55,263.0,13.4,13.84,47.59359,-54.27349
2023-01-25 15:24:01+00:00,278.0,10.63,279.0,11.96,13.84,47.59359,-54.27349
2023-01-25 15:34:01+00:00,272.0,10.03,270.0,10.74,13.84,47.59359,-54.27349
2023-01-25 15:44:01+00:00,275.0,11.47,273.0,12.3,13.84,47.59359,-54.27349
2023-01-25 15:54:01+00:00,288.0,9.67,290.0,10.99,13.84,47.59359,-54.27349
2023-01-25 16:04:01+00:00,272.0,10.68,276.0,12.76,13.84,47.59359,-54.27349
2023-01-25 16:14:00+00:00,283.0,11.39,287.0,12.04,13.84,47.59359,-54.27349
2023-01-25 16:24:00+00:00,270.0,10.52,276.0,12.13,13.84,47.59359,-54.27349
2023-01-25 16:34:00+00:00,267.0,11.92,262.0,14.0,13.84,47.59359,-54.27349
2023-01-25 16:44:00+00:00,268.0,10.81,277.0,12.18,13.84,47.59359,-54.27349
2023-01-25 16:54:00+00:00,278.0,12.54,277.0,13.81,13.84,47.59359,-54.27349
2023-01-25 17:04:00+00:00,283.0,12.15,283.0,14.31,13.84,47.59359,-54.27349
2023-01-25 17:14:00+00:00,282.0,11.24,287.0,12.36,14.48,47.59359,-54.27349
2023-01-25 17:24:00+00:00,281.0,10.5,284.0,11.9,14.48,47.59359,-54.27349
2023-01-25 17:34:00+00:00,271.0,12.16,273.0,13.34,14.48,47.59359,-54.27349
2023-01-25 17:44:00+00:00,269.0,10.57,266.0,11.62,14.48,47.59359,-54.27349
2023-01-25 17:54:00+00:00,277.0,10.33,279.0,11.51,14.48,47.59359,-54.27349
2023-01-25 18:04:00+00:00,269.0,10.08,271.0,12.12,14.48,47.59359,-54.27349
2023-01-25 18:14:00+00:00,268.0,10.84,267.0,11.82,14.24,47.59359,-54.27349
2023-01-25 18:24:00+00:00,272.0,10.93,272.0,12.6,14.24,47.59359,-54.27349
2023-01-25 18:34:00+00:00,273.0,11.83,267.0,13.37,14.24,47.59359,-54.27349
2023-01-25 18:44:00+00:00,275.0,8.45,268.0,9.8,14.24,47.59359,-54.27349
2023-01-25 18:54:00+00:00,262.0,10.8,254.0,13.05,14.24,47.59359,-54.27349
2023-01-25 19:04:00+00:00,267.0,11.18,274.0,13.03,14.24,47.59359,-54.27349
2023-01-25 19:14:00+00:00,267.0,8.77,262.0,10.62,13.29,47.59359,-54.27349
2023-01-25 19:24:00+00:00,265.0,9.88,264.0,10.82,13.29,47.59359,-54.27349
2023-01-25 19:34:00+00:00,260.0,9.64,254.0,10.54,13.29,47.59359,-54.27349
2023-01-25 19:44:00+00:00,273.0,10.52,276.0,11.56,13.29,47.59359,-54.27349
2023-01-25 19:54:00+00:00,275.0,9.11,270.0,11.01,13.29,47.59359,-54.27349
2023-01-25 20:04:00+00:00,272.0,9.98,278.0,11.28,13.29,47.59359,-54.27349
2023-01-25 20:14:00+00:00,275.0,9.78,279.0,11.08,12.81,47.59359,-54.27349
2023-01-25 20:24:00+00:00,267.0,7.23,262.0,8.83,12.81,47.59359,-54.27349
2023-01-25 20:34:00+00:00,273.0,9.24,274.0,10.62,12.81,47.59359,-54.27349
2023-01-25 20:44:00+00:00,265.0,8.38,271.0,9.98,12.81,47.59359,-54.27349
2023-01-25 20:54:00+00:00,263.0,8.11,256.0,10.39,12.81,47.59359,-54.27349
2023-01-25 21:04:00+00:00,272.0,7.46,274.0,9.05,12.81,47.59359,-54.27349
2023-01-25 21:14:00+00:00,265.0,8.65,265.0,9.6,12.49,47.59359,-54.27349
2023-01-25 21:24:00+00:00,263.0,7.22,267.0,8.58,12.49,47.59359,-54.27349
2023-01-25 21:34:00+00:00,271.0,6.67,271.0,7.35,12.49,47.59359,-54.27349
2023-01-25 21:44:00+00:00,310.0,6.69,308.0,7.55,12.49,47.59359,-54.27349
2023-01-25 21:54:00+00:00,311.0,7.72,313.0,9.1,12.49,47.59359,-54.27349
2023-01-25 22:04:00+00:00,304.0,8.02,306.0,9.41,12.49,47.59359,-54.27349
2023-01-25 22:14:01+00:00,315.0,8.4,314.0,9.47,12.41,47.59359,-54.27349
2023-01-25 22:24:01+00:00,319.0,9.29,317.0,11.2,12.41,47.59359,-54.27349
2023-01-25 22:34:01+00:00,309.0,7.94,308.0,9.19,12.41,47.59359,-54.27349
2023-01-25 22:44:01+00:00,306.0,8.96,304.0,10.61,12.41,47.59359,-54.27349
2023-01-25 22:54:01+00:00,310.0,7.62,302.0,9.6,12.41,47.59359,-54.27349
2023-01-25 23:04:01+00:00,303.0,6.54,303.0,8.29,12.41,47.59359,-54.27349
2023-01-25 23:14:00+00:00,309.0,7.27,306.0,9.21,12.41,47.59359,-54.27349
2023-01-25 23:24:00+00:00,314.0,6.41,305.0,8.75,12.41,47.59359,-54.27349
2023-01-25 23:34:00+00:00,317.0,5.43,322.0,7.02,12.41,47.59359,-54.27349
2023-01-25 23:44:00+00:00,308.0,5.5,308.0,6.3,12.41,47.59359,-54.27349
2023-01-25 23:54:00+00:00,317.0,5.46,325.0,6.67,12.41,47.59359,-54.27349
